N1YZ Weather Reports


Display with metric or nautical units.
time (UTC)temp
F
wind
direction
speed
MPH
gust
MPH
rain 1hr
in
rain 24hr
in
rain mn
in
humidity
%
barometer
mb
20260904154502 89 9 0.0 0.0 0.00 0.00 0.00 66 1036.7
20260904153957 89 18 0.0 0.0 0.00 0.00 0.00 68 1036.6
20260904153452 89 25 0.0 0.0 0.00 0.00 0.00 68 1036.8
20260904152949 89 143 1.0 1.0 0.00 0.00 0.00 67 1036.6
20260904152444 89 51 0.0 0.0 0.00 0.00 0.00 66 1036.6
20260904151943 88 357 0.0 0.0 0.00 0.00 0.00 72 1036.5
20260904151439 87 357 0.0 0.0 0.00 0.00 0.00 72 1036.8
20260904150933 87 13 0.0 0.0 0.00 0.00 0.00 71 1036.5
20260904150428 87 13 0.0 0.0 0.00 0.00 0.00 73 1036.5
20260904145926 87 35 0.0 0.0 0.00 0.00 0.00 74 1036.7
20260904145423 87 309 0.0 0.0 0.00 0.00 0.00 73 1036.7
20260904144918 88 15 0.0 0.0 0.00 0.00 0.00 71 1036.3
20260904144414 88 357 0.0 0.0 0.00 0.00 0.00 69 1036.6
20260904143909 89 16 0.0 0.0 0.00 0.00 0.00 70 1036.4
20260904143406 88 8 0.0 0.0 0.00 0.00 0.00 70 1036.4
20260904142902 87 9 0.0 0.0 0.00 0.00 0.00 73 1036.3
20260904142357 86 354 0.0 0.0 0.00 0.00 0.00 79 1036.4
20260904141851 85 21 0.0 0.0 0.00 0.00 0.00 79 1036.3
20260904141347 84 22 0.0 0.0 0.00 0.00 0.00 80 1036.5
20260904140843 83 31 0.0 0.0 0.00 0.00 0.00 80 1036.6
20260904140337 82 336 0.0 0.0 0.00 0.00 0.00 83 1036.5
20260904135837 82 83 0.0 0.0 0.00 0.00 0.00 83 1036.5
20260904135332 82 59 0.0 0.0 0.00 0.00 0.00 83 1036.6
20260904134828 82 2 0.0 0.0 0.00 0.00 0.00 83 1036.6
20260904134328 82 319 0.0 0.0 0.00 0.00 0.00 83 1036.5
20260904133822 81 9 0.0 0.0 0.00 0.00 0.00 85 1036.4
20260904133318 81 350 0.0 0.0 0.00 0.00 0.00 86 1036.6
20260904132817 80 357 0.0 0.0 0.00 0.00 0.00 86 1036.3
20260904132313 80 6 0.0 0.0 0.00 0.00 0.00 88 1036.3
20260904131812 79 4 0.0 0.0 0.00 0.00 0.00 89 1036.3
20260904131308 79 354 0.0 0.0 0.00 0.00 0.00 91 1036.2
20260904130808 78 184 0.0 0.0 0.00 0.00 0.00 92 1036.5
20260904130308 78 34 0.0 0.0 0.00 0.00 0.00 93 1036.3
20260904125803 77 38 0.0 0.0 0.00 0.00 0.00 94 1036.4
20260904125258 77 282 0.0 0.0 0.00 0.00 0.00 94 1036.2
20260904124753 77 332 0.0 0.0 0.00 0.00 0.00 94 1036.2
20260904124250 77 36 0.0 0.0 0.00 0.00 0.00 95 1035.9
20260904123750 77 72 0.0 0.0 0.00 0.00 0.00 95 1036.0
20260904123245 77 359 0.0 0.0 0.00 0.00 0.00 95 1036.0
20260904122740 77 40 0.0 0.0 0.00 0.00 0.00 95 1035.8
20260904122234 77 44 0.0 0.0 0.00 0.00 0.00 95 1035.8
20260904121730 77 70 0.0 0.0 0.00 0.00 0.00 96 1035.9
20260904121225 76 37 0.0 0.0 0.00 0.00 0.00 96 1035.8
20260904120722 76 1 0.0 0.0 0.00 0.00 0.00 96 1035.9
20260904120217 76 1 0.0 0.0 0.00 0.00 0.00 96 1035.6
20260904115712 76 3 0.0 0.0 0.00 0.00 0.00 96 1035.8
20260904115212 76 82 0.0 0.0 0.00 0.00 0.00 96 1035.6
20260904114707 76 75 0.0 0.0 0.00 0.00 0.00 96 1035.4
20260904114201 76 4 0.0 0.0 0.00 0.00 0.00 96 1035.4
20260904113656 76 17 0.0 0.0 0.00 0.00 0.00 96 1035.5
20260904113155 76 33 0.0 0.0 0.00 0.00 0.00 96 1035.5
20260904112650 76 81 0.0 0.0 0.00 0.00 0.00 96 1035.3
20260904112146 76 110 0.0 0.0 0.00 0.00 0.00 96 1035.5
20260904111642 76 84 0.0 0.0 0.00 0.00 0.00 96 1035.4
20260904111137 76 280 0.0 0.0 0.00 0.00 0.00 96 1035.2
20260904110632 76 351 0.0 0.0 0.00 0.00 0.00 96 1035.3
20260904110127 76 352 0.0 0.0 0.00 0.00 0.00 96 1035.0
20260904105626 76 352 0.0 0.0 0.00 0.00 0.00 95 1035.2
20260904105121 76 352 0.0 0.0 0.00 0.00 0.00 95 1035.1
20260904104617 77 352 0.0 0.0 0.00 0.00 0.00 95 1035.2
20260904104112 77 352 0.0 0.0 0.00 0.00 0.00 95 1034.8
20260904103608 77 352 0.0 0.0 0.00 0.00 0.00 95 1035.1
20260904103104 77 352 0.0 0.0 0.00 0.00 0.00 95 1035.2
20260904102600 77 353 0.0 0.0 0.00 0.00 0.00 95 1035.1
20260904102055 77 352 0.0 0.0 0.00 0.00 0.00 95 1035.0
20260904101551 77 353 0.0 0.0 0.00 0.00 0.00 95 1034.8
20260904101047 77 353 0.0 0.0 0.00 0.00 0.00 94 1034.7
20260904100542 77 353 0.0 0.0 0.00 0.00 0.00 94 1035.0
20260904100031 77 353 0.0 0.0 0.00 0.00 0.00 94 1035.0
20260904095526 77 352 0.0 0.0 0.00 0.00 0.00 94 1034.6
20260904095022 77 350 0.0 0.0 0.00 0.00 0.00 94 1034.6
20260904094516 77 12 0.0 0.0 0.00 0.00 0.00 94 1034.7
20260904094011 77 1 0.0 0.0 0.00 0.00 0.00 94 1035.1
20260904093508 77 1 0.0 0.0 0.00 0.00 0.00 94 1034.7
20260904093003 77 1 0.0 0.0 0.00 0.00 0.00 94 1034.6
20260904092459 78 1 0.0 0.0 0.00 0.00 0.00 94 1034.7
20260904091955 78 0 0.0 0.0 0.00 0.00 0.00 93 1034.8
20260904091450 78 6 0.0 0.0 0.00 0.00 0.00 94 1034.7
20260904090944 78 32 0.0 0.0 0.00 0.00 0.00 94 1034.6
20260904090440 78 113 0.0 0.0 0.00 0.00 0.00 94 1034.6
20260904085935 78 66 0.0 0.0 0.00 0.00 0.00 93 1034.4
20260904085431 78 355 0.0 0.0 0.00 0.00 0.00 93 1034.7
20260904084925 78 355 0.0 0.0 0.00 0.00 0.00 93 1034.6
20260904084422 78 354 0.0 0.0 0.00 0.00 0.00 92 1034.7
20260904083917 78 354 0.0 0.0 0.00 0.00 0.00 92 1034.6
20260904083413 78 355 0.0 0.0 0.00 0.00 0.00 92 1034.8
20260904082909 78 355 0.0 0.0 0.00 0.00 0.00 93 1034.5
20260904082409 78 355 0.0 0.0 0.00 0.00 0.00 93 1034.6
20260904081903 78 355 0.0 0.0 0.00 0.00 0.00 93 1034.7
20260904081359 78 358 0.0 0.0 0.00 0.00 0.00 93 1034.8
20260904080855 78 343 0.0 0.0 0.00 0.00 0.00 93 1034.8
20260904080350 79 358 0.0 0.0 0.00 0.00 0.00 92 1034.7
20260904075846 78 356 0.0 0.0 0.00 0.00 0.00 91 1034.7
20260904075342 78 359 0.0 0.0 0.00 0.00 0.00 92 1034.7
20260904074840 79 1 0.0 0.0 0.00 0.00 0.00 92 1034.7
20260904074335 79 1 0.0 0.0 0.00 0.00 0.00 92 1034.7
20260904073831 78 25 0.0 0.0 0.00 0.00 0.00 92 1034.8
20260904073326 79 64 0.0 0.0 0.00 0.00 0.00 92 1034.7
20260904072822 79 5 0.0 0.0 0.00 0.00 0.00 92 1034.8
20260904072321 79 5 0.0 0.0 0.00 0.00 0.00 92 1035.2
20260904071817 79 2 0.0 0.0 0.00 0.00 0.00 92 1034.8
20260904071312 79 349 0.0 0.0 0.00 0.00 0.00 91 1034.7
20260904070807 79 349 0.0 0.0 0.00 0.00 0.00 91 1034.7
20260904070306 79 347 0.0 0.0 0.00 0.00 0.00 91 1034.6
20260904065801 79 59 0.0 0.0 0.00 0.00 0.00 91 1034.5
20260904065258 79 62 0.0 0.0 0.00 0.00 0.00 91 1034.8
20260904064757 80 78 0.0 0.0 0.00 0.00 0.00 90 1034.7
20260904064253 80 61 0.0 0.0 0.00 0.00 0.00 90 1034.8
20260904063749 79 357 0.0 0.0 0.00 0.00 0.00 90 1034.6
20260904063245 79 5 0.0 0.0 0.00 0.00 0.00 90 1034.6
20260904062740 80 5 0.0 0.0 0.00 0.00 0.00 90 1034.8
20260904062236 80 6 0.0 0.0 0.00 0.00 0.00 90 1035.0
20260904061731 80 6 0.0 0.0 0.00 0.00 0.00 90 1035.0
20260904061228 80 353 0.0 0.0 0.00 0.00 0.00 90 1034.6
20260904060724 80 315 0.0 0.0 0.00 0.00 0.00 90 1034.8
20260904060220 80 4 0.0 0.0 0.00 0.00 0.00 89 1035.0
20260904055715 80 4 0.0 0.0 0.00 0.00 0.00 89 1034.6
20260904055209 80 5 0.0 0.0 0.00 0.00 0.00 90 1034.7
20260904054705 80 33 0.0 0.0 0.00 0.00 0.00 90 1034.8
20260904054201 80 22 0.0 0.0 0.00 0.00 0.00 90 1034.8
20260904053655 80 328 0.0 0.0 0.00 0.00 0.00 90 1034.8
20260904053150 80 308 0.0 0.0 0.00 0.00 0.00 89 1035.0
20260904052647 80 273 1.0 1.0 0.00 0.00 0.00 89 1034.8
20260904052142 80 353 0.0 0.0 0.00 0.00 0.00 88 1034.8
20260904051638 80 353 0.0 0.0 0.00 0.00 0.00 88 1034.7
20260904051133 80 353 0.0 0.0 0.00 0.00 0.00 87 1034.8
20260904050629 80 353 0.0 0.0 0.00 0.00 0.00 87 1034.8
20260904050125 80 352 0.0 0.0 0.00 0.00 0.00 87 1035.1
20260904045619 80 354 0.0 0.0 0.00 0.00 0.00 87 1034.8
20260904045114 80 354 0.0 0.0 0.00 0.00 0.00 87 1035.2
20260904044609 80 354 0.0 0.0 0.00 0.00 0.00 87 1034.8
20260904044106 80 354 0.0 0.0 0.00 0.00 0.00 87 1034.7
20260904043602 80 354 0.0 0.0 0.00 0.00 0.00 87 1034.6
20260904043058 81 354 0.0 0.0 0.00 0.00 0.00 86 1035.0
20260904042553 81 354 0.0 0.0 0.00 0.00 0.00 86 1035.1
20260904042048 81 354 0.0 0.0 0.00 0.00 0.00 85 1035.0
20260904041544 82 354 0.0 0.0 0.00 0.00 0.00 84 1035.0
20260904041040 82 354 0.0 0.0 0.00 0.00 0.00 84 1034.8
20260904040540 81 2 0.0 0.0 0.00 0.00 0.00 84 1035.2
20260904040037 81 358 0.0 0.0 0.00 0.00 0.00 85 1035.0
20260904035537 81 357 0.0 0.0 0.00 0.00 0.00 85 1035.1
20260904035031 81 357 0.0 0.0 0.00 0.00 0.00 85 1035.1
20260904034526 81 357 0.0 0.0 0.00 0.00 0.00 85 1035.3
20260904034021 82 357 0.0 0.0 0.00 0.00 0.00 83 1035.1
20260904033518 82 357 0.0 0.0 0.00 0.00 0.00 83 1035.3
20260904033014 82 357 0.0 0.0 0.00 0.00 0.00 82 1035.2
20260904032509 82 357 0.0 0.0 0.00 0.00 0.00 82 1035.4
20260904032009 82 358 0.0 0.0 0.00 0.00 0.00 82 1035.1
20260904031504 82 336 0.0 0.0 0.00 0.00 0.00 82 1035.3
20260904031000 82 3 0.0 0.0 0.00 0.00 0.00 81 1035.0
20260904030455 82 3 0.0 0.0 0.00 0.00 0.00 81 1035.1
20260904025949 82 3 0.0 0.0 0.00 0.00 0.00 80 1035.2
20260904025446 82 3 0.0 0.0 0.00 0.00 0.00 80 1035.2
20260904024946 82 3 0.0 0.0 0.00 0.00 0.00 80 1035.2
20260904024441 82 3 0.0 0.0 0.00 0.00 0.00 80 1035.1
20260904023937 82 3 0.0 0.0 0.00 0.00 0.00 80 1035.4
20260904023433 83 3 0.0 0.0 0.00 0.00 0.00 80 1035.4
20260904022932 83 3 0.0 0.0 0.00 0.00 0.00 80 1035.3
20260904022429 83 3 0.0 0.0 0.00 0.00 0.00 80 1035.2
20260904021925 83 3 0.0 0.0 0.00 0.00 0.00 79 1035.1
20260904021421 83 3 0.0 0.0 0.00 0.00 0.00 79 1035.1
20260904020915 83 3 0.0 0.0 0.00 0.00 0.00 78 1035.1
20260904020411 83 3 0.0 0.0 0.00 0.00 0.00 78 1034.8
20260904015909 83 3 0.0 0.0 0.00 0.00 0.00 78 1034.8
20260904015405 84 3 0.0 0.0 0.00 0.00 0.00 78 1034.7
20260904014903 84 3 0.0 0.0 0.00 0.00 0.00 77 1034.7
20260904014359 84 3 0.0 0.0 0.00 0.00 0.00 77 1035.1
20260904013854 84 1 0.0 0.0 0.00 0.00 0.00 77 1035.0
20260904013350 84 356 0.0 0.0 0.00 0.00 0.00 77 1034.6
20260904012846 84 16 0.0 0.0 0.00 0.00 0.00 76 1034.8
20260904012340 84 16 0.0 0.0 0.00 0.00 0.00 76 1034.8
20260904011839 84 44 0.0 0.0 0.00 0.00 0.00 76 1034.7
20260904011335 85 2 0.0 0.0 0.00 0.00 0.00 75 1034.7
20260904010829 85 1 0.0 0.0 0.00 0.00 0.00 75 1034.2
20260904010327 85 36 0.0 0.0 0.00 0.00 0.00 74 1034.3
20260904005821 86 20 0.0 0.0 0.00 0.00 0.00 73 1034.3
20260904005317 86 333 0.0 0.0 0.00 0.00 0.00 73 1034.2
20260904004811 85 3 0.0 0.0 0.00 0.00 0.00 73 1034.1
20260904004308 85 4 0.0 0.0 0.00 0.00 0.00 73 1034.1
20260904003803 85 7 0.0 0.0 0.00 0.00 0.00 74 1034.2
20260904003259 86 7 0.0 0.0 0.00 0.00 0.00 73 1034.1
20260904002754 86 6 0.0 0.0 0.00 0.00 0.00 72 1034.1
20260904002250 87 2 0.0 0.0 0.00 0.00 0.00 71 1034.2
20260904001749 87 11 0.0 0.0 0.00 0.00 0.00 70 1033.9
20260904001244 87 31 0.0 0.0 0.00 0.00 0.00 70 1033.9
20260904000739 87 24 0.0 0.0 0.00 0.00 0.00 69 1033.9
20260904000234 87 16 0.0 0.0 0.00 0.00 0.00 71 1034.2
20260903235734 87 16 0.0 0.0 0.00 0.00 0.00 72 1034.0
20260903235230 87 1 1.0 1.0 0.00 0.00 0.00 71 1033.9
20260903234723 88 3 0.0 0.0 0.00 0.00 0.00 70 1033.8
20260903234220 88 3 0.0 0.0 0.00 0.00 0.00 69 1034.0
20260903233716 89 3 0.0 0.0 0.00 0.00 0.00 67 1033.8
20260903233212 89 34 0.0 0.0 0.00 0.00 0.00 66 1034.1
20260903232710 89 345 0.0 0.0 0.00 0.00 0.00 67 1034.1
20260903232207 89 357 0.0 0.0 0.00 0.00 0.00 68 1033.8
20260903231705 89 355 0.0 0.0 0.00 0.00 0.00 66 1033.9
20260903231201 91 344 0.0 0.0 0.00 0.00 0.00 64 1033.8
20260903230656 91 27 0.0 0.0 0.00 0.00 0.00 62 1033.7
20260903230156 92 18 0.0 0.0 0.00 0.00 0.00 60 1033.9
20260903225652 92 358 0.0 0.0 0.00 0.00 0.00 59 1033.7
20260903225149 92 24 0.0 0.0 0.00 0.00 0.00 59 1033.7
20260903224644 93 347 0.0 0.0 0.00 0.00 0.00 59 1033.7
20260903224141 93 343 0.0 0.0 0.00 0.00 0.00 59 1033.6
20260903223636 92 299 0.0 0.0 0.00 0.00 0.00 59 1033.6
20260903223133 92 2 0.0 0.0 0.00 0.00 0.00 60 1033.8
20260903222624 92 359 0.0 0.0 0.00 0.00 0.00 60 1033.7
20260903222122 92 3 0.0 0.0 0.00 0.00 0.00 59 1033.7
20260903221618 92 11 0.0 0.0 0.00 0.00 0.00 58 1033.7
20260903221116 92 355 0.0 0.0 0.00 0.00 0.00 58 1033.5
20260903220615 93 359 0.0 0.0 0.00 0.00 0.00 57 1033.5
20260903220115 93 10 0.0 0.0 0.00 0.00 0.00 55 1033.3
20260903215614 93 19 2.0 2.0 0.00 0.00 0.00 54 1033.4
20260903215109 93 352 1.0 1.0 0.00 0.00 0.00 54 1033.2
20260903214608 93 347 0.0 0.0 0.00 0.00 0.00 58 1033.2
20260903214103 93 341 0.0 0.0 0.00 0.00 0.00 57 1033.2
20260903213558 93 350 0.0 0.0 0.00 0.00 0.00 56 1033.3
20260903213054 94 358 2.0 2.0 0.00 0.00 0.00 57 1033.3
20260903212550 94 359 0.0 0.0 0.00 0.00 0.00 56 1033.3
20260903212045 94 34 0.0 0.0 0.00 0.00 0.00 54 1033.3
20260903211540 94 94 1.0 1.0 0.00 0.00 0.00 54 1033.3
20260903211036 94 8 0.0 0.0 0.00 0.00 0.00 54 1033.4
20260903210531 94 346 1.0 2.0 0.00 0.00 0.00 57 1033.4
20260903210026 94 16 0.0 0.0 0.00 0.00 0.00 54 1033.6
20260903205520 94 26 1.0 1.0 0.00 0.00 0.00 56 1033.6
20260903205015 94 18 0.0 1.0 0.00 0.00 0.00 57 1033.7
20260903204511 94 59 0.0 0.0 0.00 0.00 0.00 56 1033.5
20260903204006 94 0 0.0 1.0 0.00 0.00 0.00 56 1033.4
20260903203501 94 8 1.0 2.0 0.00 0.00 0.00 57 1033.7
20260903203000 94 40 0.0 1.0 0.00 0.00 0.00 55 1033.7
20260903202457 93 15 0.0 0.0 0.00 0.00 0.00 57 1033.6
20260903201951 93 7 0.0 0.0 0.00 0.00 0.00 58 1034.0
20260903201447 93 83 1.0 1.0 0.00 0.00 0.00 59 1033.8
20260903200945 94 9 0.0 1.0 0.00 0.00 0.00 56 1033.9
20260903200441 95 19 0.0 0.0 0.00 0.00 0.00 55 1034.1
20260903195935 96 25 0.0 0.0 0.00 0.00 0.00 54 1034.4
20260903195432 96 21 1.0 1.0 0.00 0.00 0.00 50 1034.4
20260903194926 95 3 0.0 0.0 0.00 0.00 0.00 55 1034.4
20260903194422 94 351 2.0 3.0 0.00 0.00 0.00 56 1034.3
20260903193917 94 5 0.0 0.0 0.00 0.00 0.00 56 1034.4
20260903193414 94 12 0.0 0.0 0.00 0.00 0.00 55 1034.5
20260903192908 95 20 0.0 1.0 0.00 0.00 0.00 52 1034.5
20260903192404 95 26 0.0 1.0 0.00 0.00 0.00 55 1034.7
20260903191901 94 19 0.0 0.0 0.00 0.00 0.00 56 1035.0
20260903191356 94 16 0.0 0.0 0.00 0.00 0.00 56 1034.8
20260903190855 95 358 1.0 1.0 0.00 0.00 0.00 53 1035.2
20260903190350 96 7 0.0 0.0 0.00 0.00 0.00 53 1035.0
20260903185849 96 349 0.0 0.0 0.00 0.00 0.00 54 1035.2
20260903185344 97 28 0.0 0.0 0.00 0.00 0.00 51 1035.2
20260903184840 96 18 1.0 1.0 0.00 0.00 0.00 51 1034.6
20260903184337 96 15 0.0 1.0 0.00 0.00 0.00 53 1035.2
20260903183832 97 357 0.0 1.0 0.00 0.00 0.00 51 1035.2
20260903183327 96 35 2.0 2.0 0.00 0.00 0.00 54 1035.0
20260903182826 96 162 1.0 1.0 0.00 0.00 0.00 52 1035.3
20260903182320 96 101 1.0 1.0 0.00 0.00 0.00 53 1035.4
20260903181820 94 11 0.0 1.0 0.00 0.00 0.00 57 1035.7
20260903181315 93 7 1.0 1.0 0.00 0.00 0.00 57 1035.6
20260903180814 94 18 0.0 0.0 0.00 0.00 0.00 56 1035.6
20260903180313 95 15 0.0 0.0 0.00 0.00 0.00 55 1035.8
20260903175808 95 140 2.0 3.0 0.00 0.00 0.00 52 1035.6
20260903175307 95 25 0.0 0.0 0.00 0.00 0.00 53 1035.8
20260903174802 95 75 1.0 1.0 0.00 0.00 0.00 52 1035.7
20260903174257 94 16 0.0 0.0 0.00 0.00 0.00 56 1035.9
20260903173756 94 28 1.0 1.0 0.00 0.00 0.00 60 1035.9
20260903173253 95 8 0.0 1.0 0.00 0.00 0.00 55 1035.9
20260903172748 94 103 1.0 1.0 0.00 0.00 0.00 59 1036.0
20260903172242 94 22 0.0 0.0 0.00 0.00 0.00 60 1036.2
20260903171738 94 11 1.0 1.0 0.00 0.00 0.00 58 1036.3
20260903171233 93 338 1.0 2.0 0.00 0.00 0.00 63 1036.2
20260903170727 92 7 0.0 0.0 0.00 0.00 0.00 62 1036.4
20260903170222 93 91 2.0 2.0 0.00 0.00 0.00 56 1036.3
20260903165720 93 30 0.0 0.0 0.00 0.00 0.00 57 1036.4
20260903165215 94 33 0.0 0.0 0.00 0.00 0.00 58 1036.4
20260903164709 94 125 2.0 2.0 0.00 0.00 0.00 57 1036.7
20260903164206 93 111 1.0 1.0 0.00 0.00 0.00 59 1036.6
20260903163705 93 5 1.0 1.0 0.00 0.00 0.00 61 1036.5
20260903163202 92 356 0.0 0.0 0.00 0.00 0.00 64 1036.6
20260903162657 91 26 0.0 0.0 0.00 0.00 0.00 64 1036.7
20260903162153 91 3 1.0 2.0 0.00 0.00 0.00 64 1036.9
20260903161649 91 352 0.0 0.0 0.00 0.00 0.00 67 1036.8
20260903161144 91 7 1.0 1.0 0.00 0.00 0.00 66 1036.9
20260903160639 92 23 0.0 0.0 0.00 0.00 0.00 64 1037.0
20260903160133 92 34 0.0 0.0 0.00 0.00 0.00 64 1037.1
20260903155632 92 325 0.0 0.0 0.00 0.00 0.00 61 1037.2
20260903155127 92 322 0.0 1.0 0.00 0.00 0.00 60 1037.3